| time (UTC) | temp C | wind direction | speed KPH | gust KPH | rain 1hr cm | rain 24hr cm | rain mn cm | humidity % | barometer mb |
| 20260504204604 | 24 | 98 | 3.2 | 12.9 | 0.00 | 0.05 | 0.05 | 59 | 1015.6 |
| 20260504203054 | 23 | 107 | 3.2 | 16.1 | 0.00 | 0.05 | 0.05 | 59 | 1015.8 |
| 20260504201553 | 23 | 88 | 4.8 | 19.3 | 0.00 | 0.05 | 0.05 | 58 | 1015.9 |
| 20260504194553 | 24 | 75 | 6.4 | 16.1 | 0.00 | 0.05 | 0.05 | 55 | 1015.9 |
| 20260504193054 | 23 | 105 | 3.2 | 19.3 | 0.00 | 0.05 | 0.05 | 55 | 1016.2 |
| 20260504191555 | 24 | 104 | 4.8 | 22.5 | 0.00 | 0.05 | 0.05 | 54 | 1016.2 |
| 20260504190054 | 23 | 46 | 4.8 | 17.7 | 0.00 | 0.05 | 0.05 | 54 | 1016.3 |
| 20260504184557 | 24 | 133 | 3.2 | 12.9 | 0.00 | 0.05 | 0.05 | 53 | 1016.9 |
| 20260504183056 | 24 | 106 | 6.4 | 20.9 | 0.00 | 0.05 | 0.05 | 52 | 1017.0 |
| 20260504181604 | 24 | 68 | 6.4 | 16.1 | 0.00 | 0.05 | 0.05 | 52 | 1017.1 |
| 20260504180100 | 25 | 106 | 3.2 | 14.5 | 0.00 | 0.05 | 0.05 | 51 | 1017.1 |
| 20260504174556 | 24 | 94 | 4.8 | 19.3 | 0.00 | 0.05 | 0.05 | 53 | 1017.2 |
| 20260504173059 | 24 | 105 | 4.8 | 12.9 | 0.00 | 0.05 | 0.05 | 52 | 1017.3 |
| 20260504171558 | 24 | 80 | 3.2 | 16.1 | 0.00 | 0.05 | 0.05 | 50 | 1017.6 |
| 20260504081553 | 13 | 0 | 0.0 | 1.6 | 0.00 | 0.03 | 0.00 | 93 | 1016.7 |
| 20260504044551 | 17 | 0 | 0.0 | 0.0 | 0.00 | 0.03 | 0.00 | 82 | 1017.7 |
| 20260504043059 | 17 | 0 | 0.0 | 3.2 | 0.00 | 0.03 | 0.00 | 82 | 1017.9 |
| 20260504041553 | 17 | 0 | 0.0 | 3.2 | 0.00 | 0.03 | 0.00 | 81 | 1017.8 |
| 20260504040058 | 18 | 0 | 0.0 | 1.6 | 0.00 | 0.03 | 0.00 | 80 | 1017.8 |
| 20260504034552 | 18 | 0 | 0.0 | 4.8 | 0.00 | 0.03 | 0.03 | 79 | 1017.9 |
| 20260504033054 | 18 | 0 | 0.0 | 4.8 | 0.00 | 0.03 | 0.03 | 78 | 1017.9 |
| 20260504031553 | 18 | 103 | 1.6 | 8.0 | 0.00 | 0.03 | 0.03 | 77 | 1017.8 |
| 20260504030049 | 18 | 0 | 1.6 | 4.8 | 0.00 | 0.03 | 0.03 | 77 | 1017.9 |
| 20260504024558 | 18 | 66 | 0.0 | 11.3 | 0.00 | 0.03 | 0.03 | 76 | 1017.9 |
| 20260504023050 | 18 | 102 | 1.6 | 6.4 | 0.00 | 0.03 | 0.03 | 76 | 1017.9 |
| 20260504021557 | 18 | 94 | 1.6 | 9.7 | 0.00 | 0.03 | 0.03 | 76 | 1017.6 |
| 20260504020127 | 18 | 94 | 1.6 | 9.7 | 0.00 | 0.03 | 0.03 | 76 | 1017.4 |
| 20260504014603 | 18 | 93 | 1.6 | 6.4 | 0.00 | 0.03 | 0.03 | 76 | 1017.4 |
| 20260504013116 | 18 | 0 | 0.0 | 6.4 | 0.00 | 0.03 | 0.03 | 75 | 1017.2 |
| 20260504011558 | 18 | 67 | 1.6 | 6.4 | 0.00 | 0.03 | 0.03 | 75 | 1016.9 |
| 20260504010057 | 18 | 87 | 1.6 | 6.4 | 0.00 | 0.03 | 0.03 | 74 | 1016.8 |
| 20260504004638 | 18 | 90 | 1.6 | 12.9 | 0.00 | 0.03 | 0.03 | 74 | 1016.6 |
| 20260504003101 | 18 | 152 | 0.0 | 11.3 | 0.00 | 0.03 | 0.03 | 73 | 1017.0 |
| 20260504001623 | 19 | 86 | 1.6 | 9.7 | 0.00 | 0.03 | 0.03 | 72 | 1016.8 |
| 20260504000105 | 19 | 78 | 1.6 | 6.4 | 0.00 | 0.03 | 0.03 | 71 | 1016.6 |
| 20260503234601 | 20 | 0 | 0.0 | 9.7 | 0.00 | 0.03 | 0.03 | 69 | 1016.9 |
| 20260503233100 | 20 | 61 | 0.0 | 11.3 | 0.00 | 0.03 | 0.03 | 69 | 1016.7 |
| 20260503231557 | 20 | 89 | 1.6 | 11.3 | 0.00 | 0.03 | 0.03 | 67 | 1016.8 |
| 20260503230110 | 20 | 99 | 1.6 | 16.1 | 0.00 | 0.03 | 0.03 | 64 | 1016.6 |
| 20260503224559 | 20 | 65 | 1.6 | 4.8 | 0.00 | 0.03 | 0.03 | 62 | 1016.6 |
| 20260503223056 | 21 | 94 | 1.6 | 12.9 | 0.00 | 0.03 | 0.03 | 59 | 1016.7 |
| 20260503221602 | 21 | 5 | 1.6 | 6.4 | 0.00 | 0.03 | 0.03 | 57 | 1016.5 |
| 20260503220058 | 21 | 5 | 1.6 | 12.9 | 0.00 | 0.03 | 0.03 | 56 | 1016.8 |
| 20260503214558 | 21 | 70 | 1.6 | 9.7 | 0.00 | 0.03 | 0.03 | 56 | 1016.9 |
| 20260503213056 | 21 | 72 | 3.2 | 12.9 | 0.00 | 0.03 | 0.03 | 55 | 1016.8 |
| 20260503211557 | 21 | 26 | 1.6 | 14.5 | 0.00 | 0.03 | 0.03 | 60 | 1016.8 |
| 20260503210048 | 22 | 105 | 3.2 | 14.5 | 0.00 | 0.03 | 0.03 | 57 | 1016.7 |